Weather in St. George

Bermuda     32°20′05″N   64°41′31″W
В апреле 2022 года жителям России запретили посещать сайт meteo.paraplan.net по решению Генеральной прокуратуры. Аудитория сайта уменьшилась в 10 раз. Владельцы сайта не видят смысла в поддержке погодного сервера в таких условиях. Сайт будет закрыт в октябре.
temp.,
°C
wind,
m/s
gust,
m/s
humid.,
%
clouds,
%
prec.,
mm/h
press.,
hPa
HPBL,
m
6 october, thu
thu600:00+26wsw45830 0.1 1014507
03:00+25wnw44840 0.5 1013467
06:00+25nw448121 0.0 1014627
09:00+25nw558022 0.1 1016651
12:00+25nw55739 0.1 1016714
15:00+25wnw44670 0.1 1016727
18:00+25wnw44650 0.0 1017773
21:00+25wnw34590 0.0 1018820
7 october, fri
fri700:00+25w34590 0.0 1018867
03:00+24w33620 0.0 1018867
06:00+24wnw33630 0.0 1019912
09:00+24wnw22630 0.0 1020949
12:00+24w22640 0.0 1020843
15:00+25wnw22640 0.0 1019772
18:00+25nnw22650 0.0 1019749
21:00+24nne11670 0.0 1020665
8 october, sat
sat800:00+24ne11690 0.0 1020606
03:00+24ene22710 0.0 1020552
06:00+24ene22720 0.0 1020565
09:00+24ene32725 0.0 1021599
12:00+24ene22702 0.0 1021592
15:00+24e22670 0.0 1020539
18:00+25ene22651 0.0 1019535
21:00+25ene22654 0.0 1020508
9 october, sun
sun900:00+24ene22655 0.0 1020453
03:00+24ne22675 0.0 1020433
06:00+24nne327066 0.0 1020414
09:00+24nne33715 0.0 1021473
12:00+24ne337199 0.0 1022487
15:00+25nne4371100 0.0 1020548
18:00+25ne547050 0.0 1021641
21:00+25ene55725 0.0 1022594
10 october, mon
mon1000:00+25e4475100 0.0 1022621
03:00+25ene437893 0.0 1021612
06:00+25ne4479100 0.0 1021555
09:00+25ene4479100 0.0 1023569
12:00+25ene5480100 0.1 1023609
15:00+25ene5479100 0.1 1022581
18:00+25ne5579100 0.1 1022643
21:00+25ene5580100 0.3 1023626